Wind_Speed
40 41 42 42 42 42 43 44 45 47 48 48 49 50 51 52 53 54 54 55 56 56 57 58 59 61 61 62 62 62 61 61 63 64 66 65 62 62
42 43 43 43 44 45 45 45 46 48 49 49 50 50 50 51 51 52 54 55 55 55 56 56 57 57 57 57 57 57 58 58 58 59 61 63 62 61
43 42 42 43 43 44 44 44 45 45 46 47 48 49 50 50 51 51 51 50 50 50 49 49 49 49 48 48 49 49 49 50 51 51 53 54 56 57
41 41 42 42 42 43 44 44 44 44 44 45 46 46 47 47 47 46 45 44 44 44 44 43 44 44 44 43 43 43 43 44 44 45 46 47 49 50
40 41 41 42 42 43 43 43 43 43 43 43 42 42 42 42 42 43 43 42 41 41 41 41 41 41 40 40 39 39 39 39 39 39 40 41 42 43
39 39 39 40 40 40 40 40 40 39 39 39 39 39 39 39 39 39 39 38 38 38 38 37 37 36 36 36 36 35 34 34 34 35 36 37 37 38
37 37 37 38 38 37 37 36 36 36 36 37 37 37 36 36 36 35 35 35 35 35 34 33 33 33 33 33 32 31 30 30 30 30 31 32 32 33
35 35 35 34 33 33 33 33 33 33 33 33 33 33 33 33 32 32 32 31 31 30 30 30 30 29 29 28 27 26 26 26 26 27 27 27 27 28
31 30 30 30 30 30 29 29 29 29 30 30 29 29 29 29 29 28 28 28 26 26 26 25 25 24 23 23 22 22 22 23 23 23 23 23 23 24
27 27 27 27 27 26 26 26 26 27 27 27 27 26 26 26 24 24 23 23 22 21 21 21 21 21 20 20 20 20 20 21 21 21 21 21 21 22
25 25 24 24 23 23 24 24 25 25 24 24 24 23 22 21 20 19 19 19 18 18 18 18 19 19 19 18 18 18 18 18 19 19 20 21 21 21
22 22 22 22 22 22 22 22 22 21 21 21 20 18 17 16 16 16 16 16 16 16 16 16 16 16 16 17 17 17 17 18 18 18 19 19 20 20
20 20 20 20 20 19 19 18 18 17 17 16 16 15 14 14 14 14 14 14 14 14 15 15 16 16 16 16 17 17 17 17 17 18 18 19 19 19
18 18 18 17 17 17 16 15 15 14 14 14 13 13 13 13 13 13 13 13 13 14 15 15 15 15 16 16 17 17 17 17 18 18 19 20 20 20
15 15 15 15 13 13 12 13 12 12 12 12 12 11 12 12 12 12 12 13 13 14 14 15 15 15 15 16 16 17 18 18 18 19 20 21 21 21
13 13 13 11 11 11 11 11 11 11 11 11 11 11 11 11 11 12 12 13 13 13 14 15 15 15 16 16 16 17 17 18 19 20 21 21 22 21
11 11 11 11 11 11 11 10 10 10 10 10 10 11 11 11 11 11 12 13 13 13 13 14 14 15 16 17 17 17 18 18 20 21 22 23 23 22
10 10 10 11 11 11 11 11 10 10 10 10 10 10 10 9 10 11 12 13 13 13 13 13 14 15 16 17 17 18 18 18 20 21 23 23 24 23
10 10 10 10 11 11 10 10 10 9 9 9 9 9 8 9 9 10 11 12 12 13 13 13 14 15 16 17 17 18 18 19 20 21 22 23 24 24
10 10 10 10 10 10 9 9 9 9 8 8 8 8 8 8 9 10 10 11 12 12 13 13 14 15 16 17 17 17 18 19 20 21 22 23 24 24
10 10 10 10 10 9 9 8 8 8 8 8 8 7 7 8 9 9 10 11 11 12 13 13 14 15 16 17 17 18 19 19 20 21 22 23 24 24
10 10 10 9 9 9 8 8 7 7 7 7 7 7 7 8 8 9 10 11 11 12 12 13 14 15 16 17 18 18 19 20 21 21 22 23 23 23
10 10 10 10 9 9 8 7 7 7 7 7 7 7 7 8 9 9 10 10 11 11 12 13 14 15 16 17 18 18 19 20 21 22 22 23 23 24
Wind_Direction
284 284 284 284 283 283 283 282 283 283 283 282 281 282 282 283 283 284 284 283 283 283 282 282 282 281 281 279 278 277 275 272 270 268 267 266 266 265
286 285 285 286 285 284 284 283 283 283 282 282 282 283 283 283 283 284 284 284 284 285 285 285 285 285 284 283 281 279 278 276 274 272 270 269 268 267
286 286 286 287 286 285 285 284 284 285 284 284 283 283 282 283 285 286 287 287 288 288 288 288 288 287 287 286 284 283 281 279 277 275 273 273 272 271
286 286 285 286 286 286 286 286 286 287 287 286 287 287 286 287 288 289 289 290 291 291 291 291 291 290 289 289 288 286 284 282 280 279 277 276 275 274
287 287 286 286 286 286 286 286 286 287 287 288 289 290 290 290 291 292 291 292 292 292 292 293 293 293 292 291 290 288 286 285 284 283 281 278 276 275
287 287 287 288 288 287 288 288 288 288 288 290 291 292 292 293 294 294 295 296 296 296 296 296 296 296 296 294 293 291 290 289 288 287 285 284 281 278
287 287 288 289 289 289 289 289 289 290 291 292 292 293 294 295 296 297 298 299 299 299 299 299 299 299 298 298 297 295 294 293 293 291 289 288 287 285
288 289 290 290 290 290 290 291 291 292 293 294 294 295 296 297 299 300 302 302 303 303 303 303 303 303 302 302 302 301 300 299 298 297 295 293 292 290
291 291 292 292 292 291 292 292 293 295 296 297 297 298 298 299 300 302 304 305 306 306 309 312 313 312 311 310 308 307 307 306 305 304 302 300 298 296
293 294 295 295 294 295 295 295 296 298 299 300 301 301 301 302 303 306 309 311 312 315 318 320 322 322 322 320 319 317 316 315 315 314 313 311 308 305
294 295 296 297 297 297 297 298 299 301 301 303 304 306 307 308 310 312 316 319 321 324 326 328 329 330 330 331 330 329 328 328 327 326 324 322 319 315
296 298 300 300 300 301 302 302 303 305 306 308 310 312 313 316 318 321 324 327 329 332 334 336 337 338 338 340 342 341 339 337 336 336 335 333 330 328
299 301 303 303 304 305 306 306 308 310 312 314 318 321 323 325 328 331 334 335 336 339 341 342 343 345 347 348 349 349 348 348 348 349 347 345 342 339
304 306 307 308 308 309 311 313 315 317 318 322 325 327 330 332 336 339 340 341 341 343 346 348 349 351 353 355 357 359 359 359 358 358 357 356 355 352
310 312 314 315 317 319 322 324 323 323 325 327 329 332 334 336 339 343 346 347 348 350 352 353 355 358 360 2 4 6 6 6 5 4 3 3 3 1
315 319 322 325 327 329 331 331 330 329 330 331 332 335 338 341 345 349 352 354 355 356 358 1 4 7 9 11 12 13 13 14 14 13 12 12 11 11
326 327 329 331 333 334 333 333 333 333 333 334 337 340 344 347 351 354 356 358 1 3 5 9 12 15 16 18 19 18 17 18 19 19 19 18 18 18
331 332 334 335 335 334 334 334 335 337 338 340 342 345 350 354 358 1 3 5 8 11 14 17 19 20 21 21 20 21 21 21 21 21 22 21 21 22
334 335 335 336 335 334 334 335 338 341 342 345 348 353 358 2 6 8 10 12 15 19 22 24 25 24 24 23 23 23 24 23 23 23 23 23 24 26
339 338 336 335 334 335 336 338 341 345 349 355 358 2 6 11 15 17 17 18 21 24 26 28 28 27 26 26 28 28 27 27 26 25 26 27 28 29
343 341 340 340 340 342 344 345 348 353 358 3 7 10 16 20 24 26 24 26 29 29 29 30 31 32 32 32 32 31 30 29 29 28 29 29 30 31
348 348 349 351 352 354 356 357 0 4 7 12 18 22 26 31 35 37 34 33 33 33 35 37 38 38 36 34 33 33 32 32 31 31 32 32 33 34
358 0 1 2 3 5 8 10 12 15 18 23 29 34 38 41 45 47 45 42 42 42 42 43 43 42 39 37 35 34 34 33 33 34 34 35 35 36
Height
5775 5772 5769 5767 5764 5762 5760 5757 5754 5750 5747 5744 5741 5737 5734 5730 5726 5722 5717 5713 5708 5704 5699 5694 5690 5685 5681 5678 5674 5670 5668 5666 5664 5663 5662 5661 5660 5660
5763 5760 5757 5754 5752 5750 5747 5744 5741 5738 5734 5731 5727 5724 5720 5716 5712 5708 5704 5699 5693 5688 5683 5679 5674 5669 5665 5661 5657 5654 5651 5648 5646 5645 5643 5641 5640 5640
5751 5748 5746 5743 5740 5737 5735 5732 5729 5725 5721 5717 5714 5710 5707 5703 5699 5694 5690 5685 5679 5674 5669 5664 5659 5655 5651 5646 5642 5639 5636 5633 5630 5628 5626 5625 5623 5623
5739 5737 5734 5731 5728 5725 5722 5719 5716 5713 5709 5705 5701 5698 5694 5690 5686 5682 5677 5672 5667 5662 5657 5653 5648 5643 5639 5635 5630 5626 5623 5620 5617 5614 5612 5611 5609 5607
5728 5725 5723 5720 5717 5713 5710 5707 5704 5701 5698 5694 5690 5686 5682 5678 5674 5670 5665 5660 5656 5651 5647 5642 5638 5633 5628 5624 5620 5615 5612 5609 5606 5603 5600 5597 5595 5593
5717 5714 5712 5709 5705 5702 5699 5696 5693 5690 5686 5683 5679 5676 5672 5668 5664 5659 5655 5650 5646 5641 5636 5632 5628 5623 5619 5614 5610 5606 5602 5598 5595 5592 5589 5586 5584 5582
5707 5704 5701 5698 5695 5692 5689 5685 5682 5679 5676 5673 5670 5666 5662 5658 5654 5650 5645 5641 5636 5632 5628 5623 5619 5614 5610 5605 5601 5597 5593 5590 5586 5583 5580 5577 5574 5571
5697 5694 5691 5688 5685 5682 5679 5676 5674 5670 5667 5664 5660 5657 5653 5649 5645 5641 5637 5633 5629 5625 5620 5616 5611 5607 5602 5598 5594 5590 5586 5583 5579 5576 5572 5569 5566 5563
5688 5685 5682 5679 5677 5674 5671 5668 5665 5662 5659 5656 5652 5649 5645 5642 5638 5634 5630 5626 5622 5618 5614 5610 5605 5601 5596 5592 5588 5584 5581 5577 5573 5569 5565 5562 5558 5555
5681 5678 5675 5672 5669 5666 5664 5661 5658 5656 5653 5649 5646 5642 5639 5635 5632 5629 5625 5621 5617 5613 5609 5605 5601 5596 5592 5588 5584 5580 5576 5572 5568 5564 5560 5556 5552 5548
5674 5671 5668 5666 5663 5660 5657 5655 5652 5649 5646 5643 5640 5636 5633 5629 5626 5623 5620 5617 5613 5610 5606 5602 5598 5593 5589 5585 5581 5577 5573 5569 5564 5560 5555 5551 5547 5543
5668 5665 5663 5660 5657 5654 5651 5649 5646 5643 5641 5638 5634 5631 5628 5625 5623 5620 5617 5614 5610 5607 5603 5600 5596 5592 5588 5584 5580 5575 5571 5566 5562 5557 5553 5548 5543 5539
5663 5660 5657 5655 5652 5649 5647 5644 5642 5639 5636 5634 5631 5628 5625 5623 5620 5617 5614 5612 5608 5605 5602 5598 5594 5590 5586 5582 5578 5574 5569 5565 5560 5556 5551 5546 5541 5536
5658 5656 5653 5650 5648 5645 5643 5641 5638 5636 5634 5631 5629 5626 5624 5621 5618 5616 5613 5610 5607 5604 5600 5597 5593 5589 5586 5581 5577 5573 5569 5564 5560 5555 5550 5545 5540 5535
5654 5652 5649 5647 5644 5642 5640 5638 5636 5634 5631 5629 5627 5624 5622 5620 5617 5614 5611 5609 5606 5602 5599 5596 5592 5589 5585 5581 5577 5573 5569 5565 5560 5555 5550 5545 5540 5534
5651 5649 5647 5645 5643 5640 5638 5636 5634 5632 5630 5627 5625 5623 5621 5618 5616 5613 5610 5608 5605 5602 5599 5595 5592 5589 5585 5581 5578 5574 5570 5566 5561 5556 5551 5546 5540 5535
5650 5648 5646 5643 5641 5639 5637 5635 5632 5630 5628 5626 5624 5622 5619 5617 5615 5613 5610 5607 5604 5601 5599 5596 5592 5589 5586 5583 5579 5575 5571 5567 5563 5558 5553 5547 5542 5537
5648 5646 5644 5642 5640 5638 5636 5633 5631 5629 5627 5625 5623 5621 5618 5616 5614 5612 5610 5607 5605 5602 5599 5596 5594 5591 5588 5584 5581 5577 5573 5569 5565 5560 5555 5550 5545 5540
5647 5645 5643 5641 5639 5637 5634 5632 5630 5628 5626 5624 5622 5620 5618 5616 5614 5612 5610 5608 5606 5603 5600 5598 5595 5592 5589 5586 5583 5579 5575 5571 5567 5563 5558 5553 5548 5543
5646 5644 5642 5639 5637 5635 5633 5631 5629 5627 5625 5623 5621 5619 5618 5616 5615 5613 5611 5609 5607 5605 5602 5600 5597 5594 5591 5588 5585 5582 5578 5574 5570 5565 5561 5556 5551 5547
5645 5643 5640 5638 5636 5634 5632 5630 5628 5626 5625 5623 5621 5620 5618 5617 5615 5613 5612 5610 5608 5606 5604 5601 5599 5596 5593 5590 5587 5584 5580 5577 5573 5569 5564 5560 5555 5550
5644 5642 5639 5637 5635 5633 5631 5629 5628 5626 5624 5623 5621 5620 5619 5617 5616 5614 5613 5612 5610 5608 5606 5604 5601 5598 5596 5593 5590 5587 5583 5580 5576 5572 5568 5564 5559 5555
5644 5641 5639 5637 5635 5633 5631 5629 5628 5626 5625 5623 5622 5621 5620 5618 5617 5616 5615 5613 5612 5610 5608 5606 5604 5601 5599 5596 5593 5590 5586 5583 5579 5575 5572 5567 5563 5559